User: anonymous   Login
Location: Unspecified
(0.0000°N, 0.0000°E)
Time: 03:24:05
(UTC+00:00)
Language:

STARLINK-30985 - Orbit

View from above orbital plane
View from above orbital plane
View from above satellite
View from above satellite

Ground track
Ground track

The orbit is defined by the following mean orbital elements,

1 58493U          26145.54997704 +.00000000 +00000-0 +21951-3 0 00006
2 58493  43.0048 349.3536 0001602 260.8729  99.1942 15.27586559    03
Epoch (UTC): 25 May 2026 13:11:58
Eccentricity: 0.0001602
inclination: 43.0048°
perigee height: 482 km
apogee height: 484 km
right ascension of ascending node: 349.3536°
argument of perigee: 260.8729°
revolutions per day: 15.27586559
mean anomaly at epoch: 99.1942°

The dashed part of the orbit path shows where the satellite is in the earth's shadow,  

DLR